Lehigh Valley, PA

6:59 AM EST on January 23, 2017 (GMT -0500)
Lehigh Valley International

Weather History for KABE - November, 2012

Change the Weather History Date:

Friday, November 9, 2012

  Actual Average Record
Temperature  
Mean Temperature 43 °F 45 °F  
Max Temperature 54 °F 55 °F 75 °F (1975)
Min Temperature 32 °F 35 °F 19 °F (1967)
Degree Days  
Heating Degree Days 22 20  
Month to date heating degree days 223 169  
Since 1 July heating degree days 613 680  
Cooling Degree Days 0 0  
Month to date cooling degree days 0 0  
Year to date cooling degree days 1048 757  
Moisture  
Dew Point 27 °F    
Average Humidity 60    
Maximum Humidity 82    
Minimum Humidity 38    
Precipitation  
Precipitation 0.00 in 0.11 in 2.35 in (1943)
Month to date precipitation T 0.98  
Year to date precipitation 35.71 39.25  
Snow  
Snow 0.00 in 0.00 in T in (1995)
Month to date snowfall T 0.0  
Since 1 July snowfall T 0.0  
Since 1 September snowfall T 0.0  
Snow Depth 0.00 in    
Sea Level Pressure  
Sea Level Pressure 30.12 in    
Wind  
Wind Speed 7 mph (NW)    
Max Wind Speed 20 mph    
Max Gust Speed 26 mph    
Visibility 10 miles    
Events      
T = Trace of Precipitation, MM = Missing Value Source: NWS Daily Summary

Daily Weather History Graph

Daily Weather History Graph

Search for Another Location

Airport or City:

Trip Planner

Search our weather history database for the weather conditions in past years. The results will help you decide how hot, cold, wet, or windy it might be!

Date:

Astronomy

Nov. 09, 2012 Rise Set
Actual Time 6:41 AM EST 4:48 PM EST
Civil Twilight 6:12 AM EST 5:17 PM EST
Nautical Twilight 5:40 AM EST 5:50 PM EST
Astronomical Twilight 5:08 AM EST 6:22 PM EST
Moon 1:36 AM EST (11/9) 2:02 PM EST (11/9)
Length of Visible Light 11h 04m
Length of Day
10h 06m
Waning Crescent, 23% of the Moon is Illuminated
Nov 9
Waning Crescent
Nov 13
New
Nov 20
First Quarter
Nov 28
Full
Dec 6
Last Quarter

Hourly Weather History & Observations

Time (EST) Temp. Windchill Dew Point Humidity Pressure Visibility Wind Dir Wind Speed Gust Speed Precip Events Conditions
12:51 AM 37.0 °F 28.9 °F 24.1 °F 59% 30.01 in 10.0 mi NNW 12.7 mph 23.0 mph N/A   Clear
1:51 AM 37.0 °F 29.3 °F 25.0 °F 62% 30.01 in 10.0 mi NW 11.5 mph - N/A   Clear
2:51 AM 36.0 °F 29.0 °F 24.1 °F 62% 30.04 in 10.0 mi NW 9.2 mph - N/A   Clear
3:51 AM 35.1 °F 29.3 °F 23.0 °F 61% 30.04 in 10.0 mi NW 6.9 mph - N/A   Clear
4:51 AM 35.1 °F 27.9 °F 23.0 °F 61% 30.06 in 10.0 mi NNW 9.2 mph - N/A   Clear
5:51 AM 37.0 °F 29.8 °F 23.0 °F 57% 30.07 in 10.0 mi NW 10.4 mph - N/A   Clear
6:51 AM 36.0 °F 31.1 °F 23.0 °F 59% 30.09 in 10.0 mi WNW 5.8 mph - N/A   Clear
7:51 AM 37.0 °F 33.3 °F 28.0 °F 70% 30.12 in 10.0 mi SW 4.6 mph - N/A   Clear
8:51 AM 43.0 °F 38.2 °F 27.0 °F 53% 30.14 in 10.0 mi NW 8.1 mph - N/A   Clear
9:51 AM 45.0 °F 39.7 °F 28.0 °F 52% 30.14 in 10.0 mi NNW 10.4 mph - N/A   Clear
10:51 AM 48.0 °F - 28.0 °F 46% 30.15 in 10.0 mi NW 11.5 mph - N/A   Clear
11:51 AM 51.1 °F - 28.0 °F 41% 30.14 in 10.0 mi NW 11.5 mph - N/A   Clear
12:51 PM 52.0 °F - 28.9 °F 41% 30.13 in 10.0 mi NW 9.2 mph 17.3 mph N/A   Scattered Clouds
1:51 PM 54.0 °F - 28.0 °F 37% 30.11 in 10.0 mi NW 11.5 mph 16.1 mph N/A   Partly Cloudy
2:51 PM 54.0 °F - 30.0 °F 40% 30.12 in 10.0 mi NW 10.4 mph - N/A   Mostly Cloudy
3:51 PM 52.0 °F - 30.9 °F 45% 30.12 in 10.0 mi NNW 6.9 mph - N/A   Partly Cloudy
4:51 PM 50.0 °F - 30.0 °F 46% 30.13 in 10.0 mi Calm Calm - N/A   Clear
5:51 PM 46.9 °F - 30.0 °F 52% 30.16 in 10.0 mi North 3.5 mph - N/A   Clear
6:51 PM 46.0 °F - 30.0 °F 54% 30.18 in 10.0 mi Calm Calm - N/A   Clear
7:51 PM 37.9 °F - 30.0 °F 73% 30.19 in 10.0 mi Calm Calm - N/A   Clear
8:51 PM 39.0 °F - 30.0 °F 70% 30.20 in 10.0 mi Calm Calm - N/A   Clear
9:51 PM 36.0 °F 33.3 °F 30.0 °F 79% 30.22 in 10.0 mi NW 3.5 mph - N/A   Clear
10:51 PM 36.0 °F - 30.0 °F 79% 30.22 in 10.0 mi Calm Calm - N/A   Clear
11:51 PM 33.1 °F - 28.9 °F 85% 30.23 in 10.0 mi Calm Calm - N/A   Clear